BLOCK DM-SL R/B, 44904

Orbit data source: Space-Track

BLOCK DM-SL R/B, 44904 is space debris in GEO originally from a launch on Tue, 24 Dec 2019 UTC launched from the Tyuratam Missile And Space Complex (TTMTR). Debris objects in space refer to the collection of defunct objects orbiting the Earth. Examples of debris include non-operational satellites, rocket bodies, and fragments generated from explosions, collisions, or faulty payload assembly.

Not visible in the next 10 days
Identifier
44904, 2019-095B
Orbit
GEO
Country
Flag of CISCIS
Related business
Manufacturer
RKKE
Mission
Spacecraft
Bus & Motor
BLOK DM2, 11D58M
Mass
2,440 kg wet, 2,440 kg dry
Launch date (UTC)
2019-12-24 (6 years ago)
Launch vehicle
Unknown
Launch site
Tyuratam Missile And Space Complex (TTMTR)
Object type
Payload
Rocket body
Debris
Shape & HBR
Cyl, 3.5 m
Radar Cross Section
26.008 m², Large (>1 m²)

Expand to show TLE details & history
Last TLE update: 19 hours ago

TLE from 19 hours ago
0 BLOCK DM-SL R/B
1 44904U 19095B   25308.03230271 -.00000040  00000-0  00000-0 0  9996
2 44904   4.7726  76.4174 0069825 266.6476  92.5378  1.02970798 22073
Epoch: 2025-11-04T00:46Z
TLE epoch observation values (Epoch: 2025-11-04T00:46:30.954Z)
Latitude
-0°
Longitude
21.20882°
Altitude
35,059.078 km
Speed
3.101 km/s
True Right ascension
05h 05m 27s
True Declination
0° 00' 00"
Sunlit
Object was in daylight at epoch
Visualization orbit readout
Latitude
Unknown
Longitude
Unknown
Altitude
Unknown
Speed
Unknown
Apparent Right ascension
Unknown
Apparent Declination
Unknown
Sunlit
N/A
Visualization observer readout
Local Sidereal Time
16:07:47
Azimuth
Unknown
Elevation
Unknown
Doppler factor
Unknown
Orbital elements
Apogee altitude
35,336.872 km
Perigee altitude
34,758.361 km
Semi-major axis
41,425.754 km
Eccentricity
0.00698
Inclination
4.7726°
RAAN
76.4174°
Arg. of periapsis
266.6476°
True anomaly
93.33682°
Mean anomaly
92.5378°
Eccentric anomaly
92.93734°
Mean motion
0.25742 °/min
Orbital period
1,398.51 mins
BSTAR
0
Loading maneuver chart data...
Computing Atmospheric mass density...
Loading historical data...
Loading historical data...
Loading historical data...
Loading historical data...
Loading historical data...
Loading historical data...
Loading historical data...
Other satellites on launch #95 in the year 2019 (2019-12-24 UTC)

Documentation

Showing up to 5 results
|